Location: Newark
(13.6797°N, 8.5297°E)
Time: 03:41:24
(UTC+00:00)

Courier 1B Rocket - Pass Details

Date: 21 January 2020
Orbit: 920 x 1202 km, 28.2° (Epoch: 17 February)

Event Time Altitude Azimuth Distance (km) Brightness Sun altitude
Rises 12:58:54 0° 280° (W) 3,808 8.3 50.8°
Reaches altitude 10° 13:02:10 10° 292° (WNW) 2,803 7.6 50.4°
Maximum altitude 13:07:44 26° 347° (NNW) 1,800 6.4 49.7°
Drops below altitude 10° 13:13:02 10° 43° (NE) 2,660 7.0 48.9°
Sets 13:16:03 0° 56° (NE) 3,577 7.6 48.5°
